Weather History for MRLB - September, 2013

Change the Weather History Date:

Monday, September 23, 2013

  Actual Average Record
Temperature  
Mean Temperature 78 °F -  
Max Temperature 85 °F 84 °F 91 °F (2004)
Min Temperature 71 °F 73 °F 69 °F (2004)
Cooling Degree Days 13    
Growing Degree Days 28 (Base 50)    
Moisture  
Dew Point 73 °F    
Average Humidity 77    
Maximum Humidity 94    
Minimum Humidity 59    
Precipitation  
Precipitation 0.00 in - - ()
Sea Level Pressure  
Sea Level Pressure 29.85 in    
Wind  
Wind Speed 4 mph ()    
Max Wind Speed 12 mph    
Max Gust Speed -    
Visibility 6.7 miles    
Events Fog    
Averages and records for this station are not official NWS values.
T = Trace of Precipitation, MM = Missing Value Source: Averaged Metar Reports

Daily Weather History Graph

Daily Weather History Graph

Search for Another Location

Airport or City:

Trip Planner

Search our weather history database for the weather conditions in past years. The results will help you decide how hot, cold, wet, or windy it might be!

Date:

Astronomy

Sep. 23, 2013 Rise Set
Actual Time 5:31 AM CST 5:37 PM CST
Civil Twilight 5:10 AM CST 5:58 PM CST
Nautical Twilight 4:45 AM CST 6:22 PM CST
Astronomical Twilight 4:21 AM CST 6:47 PM CST
Moon 8:59 PM CST (9/23) 9:01 AM CST (9/23)
Length of Visible Light 12h 48m
Length of Day
12h 06m
Waning Gibbous, 81% of the Moon is Illuminated
Sep 23
Waning Gibbous
Sep 26
Last Quarter
Oct 4
New
Oct 11
First Quarter
Oct 18
Full

Hourly Weather History & Observations

Time (CST) Temp. Heat Index Dew Point Humidity Pressure Visibility Wind Dir Wind Speed Gust Speed Precip Events Conditions
6:00 AM 72 °F - 71 °F 94% 29.87 in 0 mi Calm Calm - - Fog Heavy Fog
6:00 AM 71.6 °F - 69.8 °F 94% 29.86 in 0.4 mi Calm Calm - N/A Fog Fog
7:00 AM 73.4 °F - 71.6 °F 94% 29.89 in 6.2 mi Calm Calm - N/A   Mostly Cloudy
7:25 AM 77.0 °F - 71.6 °F 83% 29.88 in 6.2 mi Calm Calm - N/A   Scattered Clouds
8:00 AM 78.8 °F - 71.6 °F 78% 29.89 in 6.2 mi Calm Calm - N/A   Scattered Clouds
9:00 AM 82 °F - 73 °F 69% 29.91 in 12 mi WNW 3.5 mph - -   Partly Cloudy
9:00 AM 82.4 °F 88.2 °F 73.4 °F 74% 29.90 in 6.2 mi WNW 3.5 mph - N/A   Mostly Cloudy
10:00 AM 82.4 °F 88.2 °F 73.4 °F 74% 29.89 in 6.2 mi WSW 4.6 mph - N/A   Scattered Clouds
11:00 AM 84.2 °F 89.6 °F 71.6 °F 66% 29.88 in 6.2 mi NW 5.8 mph - N/A   Mostly Cloudy
12:00 PM 84 °F - 72 °F 59% 29.88 in 12 mi West 9.2 mph - -   Overcast
12:00 PM 84.2 °F 89.6 °F 71.6 °F 66% 29.86 in 6.2 mi West 9.2 mph - N/A   Mostly Cloudy
1:00 PM 84.2 °F 90.9 °F 73.4 °F 70% 29.84 in 6.2 mi West 8.1 mph - N/A   Mostly Cloudy
2:00 PM 84.2 °F 90.9 °F 73.4 °F 70% 29.81 in 6.2 mi WNW 10.4 mph - N/A   Mostly Cloudy
3:00 PM 82 °F - 73 °F 69% 29.81 in 12 mi West 10.4 mph - -   Overcast
3:00 PM 82.4 °F 88.2 °F 73.4 °F 74% 29.80 in 6.2 mi West 10.4 mph - N/A   Mostly Cloudy
4:00 PM 82.4 °F 89.5 °F 75.2 °F 79% 29.79 in 6.2 mi West 11.5 mph - N/A   Mostly Cloudy
5:00 PM 80.6 °F 85.4 °F 73.4 °F 79% 29.79 in 6.2 mi West 9.2 mph - N/A   Overcast
6:00 PM 80 °F - 74 °F 77% 29.83 in 12 mi West 8.1 mph - -   Overcast
6:00 PM 78.8 °F - 73.4 °F 83% 29.82 in 6.2 mi West 8.1 mph - N/A   Mostly Cloudy
7:00 PM 78.8 °F - 73.4 °F 83% 29.84 in 6.2 mi West 8.1 mph - N/A   Mostly Cloudy
8:00 PM 78.8 °F - 75.2 °F 89% 29.86 in 6.2 mi West 4.6 mph - N/A   Mostly Cloudy